Year,Month,Day,Hour,Minute,Value (Times are PST for windgust in km/hr)
2018,03,29,00,00,22.50
2018,03,29,00,01,19.30
2018,03,29,00,02,14.50
2018,03,29,00,03,20.90
2018,03,29,00,04,14.50
2018,03,29,00,05,14.50
2018,03,29,00,06,14.50
2018,03,29,00,07,6.40
2018,03,29,00,08,8.10
2018,03,29,00,09,9.60
2018,03,29,00,10,12.90
2018,03,29,00,11,12.90
2018,03,29,00,12,9.60
2018,03,29,00,13,12.90
2018,03,29,00,14,12.90
2018,03,29,00,15,16.10
2018,03,29,00,16,11.30
2018,03,29,00,17,11.30
2018,03,29,00,18,11.30
2018,03,29,00,19,8.10
2018,03,29,00,20,8.10
2018,03,29,00,22,6.40
2018,03,29,00,23,6.40
2018,03,29,00,24,8.10
2018,03,29,00,25,9.60
2018,03,29,00,26,9.60
2018,03,29,00,27,8.10
2018,03,29,00,28,3.20
2018,03,29,00,29,6.40
2018,03,29,00,30,6.40
2018,03,29,00,31,6.40
2018,03,29,00,32,6.40
2018,03,29,00,33,3.20
2018,03,29,00,34,3.20
2018,03,29,00,35,1.60
2018,03,29,00,36,1.60
2018,03,29,00,37,6.40
2018,03,29,00,38,8.10
2018,03,29,00,39,19.30
2018,03,29,00,40,12.90
2018,03,29,00,41,16.10
2018,03,29,00,42,16.10
2018,03,29,00,43,6.40
2018,03,29,00,44,3.20
2018,03,29,00,45,16.10
2018,03,29,00,46,12.90
2018,03,29,00,47,8.10
2018,03,29,00,48,12.90
2018,03,29,00,49,11.30
2018,03,29,00,50,14.50
2018,03,29,00,51,9.60
2018,03,29,00,52,9.60
2018,03,29,00,53,14.50
2018,03,29,00,54,22.50
2018,03,29,00,55,11.30
2018,03,29,00,56,11.30
2018,03,29,00,57,9.60
2018,03,29,00,58,19.30
2018,03,29,00,59,12.90
2018,03,29,01,00,11.30
2018,03,29,01,01,9.60
2018,03,29,01,02,11.30
2018,03,29,01,03,8.10
2018,03,29,01,04,11.30
2018,03,29,01,05,14.50
2018,03,29,01,06,8.10
2018,03,29,01,07,14.50
2018,03,29,01,08,9.60
2018,03,29,01,09,12.90
2018,03,29,01,10,9.60
2018,03,29,01,11,11.30
2018,03,29,01,12,6.40
2018,03,29,01,13,12.90
2018,03,29,01,14,17.70
2018,03,29,01,15,8.10
2018,03,29,01,16,8.10
2018,03,29,01,17,8.10
2018,03,29,01,18,6.40
2018,03,29,01,19,3.20
2018,03,29,01,20,6.40
2018,03,29,01,21,3.20
2018,03,29,01,22,6.40
2018,03,29,01,23,1.60
2018,03,29,01,24,8.10
2018,03,29,01,25,9.60
2018,03,29,01,26,4.80
2018,03,29,01,27,6.40
2018,03,29,01,28,8.10
2018,03,29,01,29,1.60
2018,03,29,01,30,1.60
2018,03,29,01,31,11.30
2018,03,29,01,32,9.60
2018,03,29,01,33,9.60
2018,03,29,01,34,11.30
2018,03,29,01,35,4.80
2018,03,29,01,36,11.30
2018,03,29,01,37,11.30
2018,03,29,01,38,9.60
2018,03,29,01,39,8.10
2018,03,29,01,40,8.10
2018,03,29,01,41,6.40
2018,03,29,01,42,8.10
2018,03,29,01,43,12.90
2018,03,29,01,44,16.10
2018,03,29,01,45,11.30
2018,03,29,01,46,9.60
2018,03,29,01,47,6.40
2018,03,29,01,48,9.60
2018,03,29,01,49,11.30
2018,03,29,01,50,8.10
2018,03,29,01,51,8.10
2018,03,29,01,52,17.70
2018,03,29,01,53,12.90
2018,03,29,01,54,17.70
2018,03,29,01,55,14.50
2018,03,29,01,56,19.30
2018,03,29,01,57,17.70
2018,03,29,01,58,12.90
2018,03,29,01,59,11.30
2018,03,29,02,00,17.70
2018,03,29,02,01,9.60
2018,03,29,02,02,11.30
2018,03,29,02,03,12.90
2018,03,29,02,04,14.50
2018,03,29,02,05,12.90
2018,03,29,02,06,20.90
2018,03,29,02,07,16.10
2018,03,29,02,08,11.30
2018,03,29,02,09,17.70
2018,03,29,02,10,11.30
2018,03,29,02,11,12.90
2018,03,29,02,12,12.90
2018,03,29,02,13,8.10
2018,03,29,02,14,6.40
2018,03,29,02,15,1.60
2018,03,29,02,16,1.60
2018,03,29,02,18,3.20
2018,03,29,02,19,3.20
2018,03,29,02,20,8.10
2018,03,29,02,21,8.10
2018,03,29,02,22,6.40
2018,03,29,02,23,4.80
2018,03,29,02,24,4.80
2018,03,29,02,25,4.80
2018,03,29,02,26,8.10
2018,03,29,02,27,8.10
2018,03,29,02,28,6.40
2018,03,29,02,29,3.20
2018,03,29,02,30,1.60
2018,03,29,02,31,6.40
2018,03,29,02,32,8.10
2018,03,29,02,33,8.10
2018,03,29,02,34,6.40
2018,03,29,02,35,9.60
2018,03,29,02,36,8.10
2018,03,29,02,37,9.60
2018,03,29,02,38,9.60
2018,03,29,02,39,6.40
2018,03,29,02,40,3.20
2018,03,29,02,42,4.80
2018,03,29,02,43,4.80
2018,03,29,02,44,4.80
2018,03,29,02,45,8.10
2018,03,29,02,46,1.60
2018,03,29,02,48,3.20
2018,03,29,02,49,3.20
2018,03,29,02,50,1.60
2018,03,29,02,51,1.60
2018,03,29,02,52,3.20
2018,03,29,02,53,11.30
2018,03,29,02,54,9.60
2018,03,29,02,55,4.80
2018,03,29,02,56,3.20
2018,03,29,02,57,1.60
2018,03,29,02,58,6.40
2018,03,29,02,59,6.40
2018,03,29,03,00,6.40
2018,03,29,03,01,6.40
2018,03,29,03,02,6.40
2018,03,29,03,03,8.10
2018,03,29,03,04,8.10
2018,03,29,03,05,4.80
2018,03,29,03,06,4.80
2018,03,29,03,07,3.20
2018,03,29,03,08,3.20
2018,03,29,03,09,3.20
2018,03,29,03,10,3.20
2018,03,29,03,11,1.60
2018,03,29,03,12,3.20
2018,03,29,03,13,8.10
2018,03,29,03,14,9.60
2018,03,29,03,15,8.10
2018,03,29,03,16,6.40
2018,03,29,03,17,11.30
2018,03,29,03,18,11.30
2018,03,29,03,19,9.60
2018,03,29,03,20,8.10
2018,03,29,03,21,11.30
2018,03,29,03,22,8.10
2018,03,29,03,23,11.30
2018,03,29,03,24,9.60
2018,03,29,03,25,6.40
2018,03,29,03,26,3.20
2018,03,29,03,27,12.90
2018,03,29,03,28,17.70
2018,03,29,03,29,16.10
2018,03,29,03,30,9.60
2018,03,29,03,31,11.30
2018,03,29,03,32,14.50
2018,03,29,03,33,14.50
2018,03,29,03,34,12.90
2018,03,29,03,35,8.10
2018,03,29,03,36,3.20
2018,03,29,03,37,3.20
2018,03,29,03,38,11.30
2018,03,29,03,39,9.60
2018,03,29,03,40,9.60
2018,03,29,03,41,8.10
2018,03,29,03,42,11.30
2018,03,29,03,43,9.60
2018,03,29,03,44,12.90
2018,03,29,03,45,14.50
2018,03,29,03,46,14.50
2018,03,29,03,47,12.90
2018,03,29,03,48,16.10
2018,03,29,03,49,12.90
2018,03,29,03,50,17.70
2018,03,29,03,51,14.50
2018,03,29,03,52,8.10
2018,03,29,03,53,6.40
2018,03,29,03,54,12.90
2018,03,29,03,55,9.60
2018,03,29,03,56,6.40
2018,03,29,03,57,6.40
2018,03,29,03,58,6.40
2018,03,29,03,59,6.40
2018,03,29,04,00,3.20
2018,03,29,04,01,3.20
2018,03,29,04,02,8.10
2018,03,29,04,03,9.60
2018,03,29,04,04,6.40
2018,03,29,04,05,8.10
2018,03,29,04,06,9.60
2018,03,29,04,07,4.80
2018,03,29,04,08,12.90
2018,03,29,04,09,8.10
2018,03,29,04,10,6.40
2018,03,29,04,11,6.40
2018,03,29,04,12,3.20
2018,03,29,04,13,8.10
2018,03,29,04,14,6.40
2018,03,29,04,15,3.20
2018,03,29,04,16,1.60
2018,03,29,04,17,4.80
2018,03,29,04,18,1.60
2018,03,29,04,19,6.40
2018,03,29,04,20,9.60
2018,03,29,04,21,12.90
2018,03,29,04,22,6.40
2018,03,29,04,23,3.20
2018,03,29,04,41,3.20
2018,03,29,04,43,4.80
2018,03,29,04,44,8.10
2018,03,29,04,45,6.40
2018,03,29,04,46,9.60
2018,03,29,04,47,8.10
2018,03,29,04,48,9.60
2018,03,29,04,49,8.10
2018,03,29,04,50,6.40
2018,03,29,04,51,6.40
2018,03,29,04,52,6.40
2018,03,29,04,53,11.30
2018,03,29,04,54,11.30
2018,03,29,04,55,6.40
2018,03,29,04,56,9.60
2018,03,29,04,57,12.90
2018,03,29,04,58,6.40
2018,03,29,04,59,6.40
2018,03,29,05,00,8.10
2018,03,29,05,01,6.40
2018,03,29,05,02,1.60
2018,03,29,05,03,3.20
2018,03,29,05,04,3.20
2018,03,29,05,05,4.80
2018,03,29,05,06,11.30
2018,03,29,05,07,6.40
2018,03,29,05,08,8.10
2018,03,29,05,09,11.30
2018,03,29,05,10,9.60
2018,03,29,05,11,6.40
2018,03,29,05,12,12.90
2018,03,29,05,13,11.30
2018,03,29,05,14,4.80
2018,03,29,05,15,9.60
2018,03,29,05,16,14.50
2018,03,29,05,17,8.10
2018,03,29,05,18,6.40
2018,03,29,05,19,3.20
2018,03,29,05,20,3.20
2018,03,29,05,21,3.20
2018,03,29,05,22,3.20
2018,03,29,05,24,3.20
2018,03,29,05,25,3.20
2018,03,29,05,26,4.80
2018,03,29,05,27,4.80
2018,03,29,05,28,1.60
2018,03,29,05,32,4.80
2018,03,29,05,33,4.80
2018,03,29,05,34,3.20
2018,03,29,05,35,1.60
2018,03,29,05,36,3.20
2018,03,29,05,37,6.40
2018,03,29,05,38,8.10
2018,03,29,05,39,1.60
2018,03,29,05,44,4.80
2018,03,29,05,45,4.80
2018,03,29,05,46,3.20
2018,03,29,05,53,4.80
2018,03,29,05,54,3.20
2018,03,29,05,55,1.60
2018,03,29,05,56,3.20
2018,03,29,05,57,1.60
2018,03,29,06,00,11.30
2018,03,29,06,01,11.30
2018,03,29,06,02,9.60
2018,03,29,06,03,3.20
2018,03,29,06,04,3.20
2018,03,29,06,05,1.60
2018,03,29,06,06,3.20
2018,03,29,06,07,6.40
2018,03,29,06,08,9.60
2018,03,29,06,09,6.40
2018,03,29,06,10,3.20
2018,03,29,06,11,1.60
2018,03,29,06,15,6.40
2018,03,29,06,16,3.20
2018,03,29,06,17,8.10
2018,03,29,06,18,8.10
2018,03,29,06,19,6.40
2018,03,29,06,20,8.10
2018,03,29,06,21,6.40
2018,03,29,06,22,6.40
2018,03,29,06,23,3.20
2018,03,29,06,24,4.80
2018,03,29,06,25,4.80
2018,03,29,06,26,4.80
2018,03,29,06,27,3.20
2018,03,29,06,28,4.80
2018,03,29,06,29,4.80
2018,03,29,06,30,3.20
2018,03,29,06,31,3.20
2018,03,29,06,32,3.20
2018,03,29,06,33,8.10
2018,03,29,06,34,9.60
2018,03,29,06,35,3.20
2018,03,29,06,36,6.40
2018,03,29,06,37,6.40
2018,03,29,06,38,1.60
2018,03,29,06,39,3.20
2018,03,29,06,40,6.40
2018,03,29,06,41,8.10
2018,03,29,06,42,3.20
2018,03,29,06,43,6.40
2018,03,29,06,44,1.60
2018,03,29,06,45,3.20
2018,03,29,06,46,3.20
2018,03,29,06,47,3.20
2018,03,29,06,48,3.20
2018,03,29,06,49,3.20
2018,03,29,06,50,6.40
2018,03,29,06,51,8.10
2018,03,29,06,52,8.10
2018,03,29,06,53,6.40
2018,03,29,06,54,4.80
2018,03,29,06,55,4.80
2018,03,29,06,56,3.20
2018,03,29,06,57,3.20
2018,03,29,06,58,3.20
2018,03,29,06,59,4.80
2018,03,29,07,00,4.80
2018,03,29,07,01,1.60
2018,03,29,07,02,1.60
2018,03,29,07,03,4.80
2018,03,29,07,04,4.80
2018,03,29,07,05,3.20
2018,03,29,07,06,3.20
2018,03,29,07,07,1.60
2018,03,29,07,09,1.60
2018,03,29,07,10,3.20
2018,03,29,07,11,9.60
2018,03,29,07,12,8.10
2018,03,29,07,13,8.10
2018,03,29,07,14,6.40
2018,03,29,07,15,4.80
2018,03,29,07,16,4.80
2018,03,29,07,17,4.80
2018,03,29,07,18,6.40
2018,03,29,07,19,6.40
2018,03,29,07,20,4.80
2018,03,29,07,21,4.80
2018,03,29,07,22,3.20
2018,03,29,07,23,3.20
2018,03,29,07,24,4.80
2018,03,29,07,25,3.20
2018,03,29,07,26,3.20
2018,03,29,07,27,3.20
2018,03,29,07,30,4.80
2018,03,29,07,31,3.20
2018,03,29,07,32,3.20
2018,03,29,07,34,1.60
2018,03,29,07,39,4.80
2018,03,29,07,40,4.80
2018,03,29,07,41,1.60
2018,03,29,07,42,1.60
2018,03,29,07,44,4.80
2018,03,29,07,45,4.80
2018,03,29,07,46,3.20
2018,03,29,07,47,3.20
2018,03,29,07,48,3.20
2018,03,29,07,49,8.10
2018,03,29,07,50,8.10
2018,03,29,07,51,8.10
2018,03,29,07,52,6.40
2018,03,29,07,53,4.80
2018,03,29,07,54,4.80
2018,03,29,07,55,6.40
2018,03,29,07,56,6.40
2018,03,29,07,57,4.80
2018,03,29,07,58,1.60
2018,03,29,07,59,1.60
2018,03,29,08,00,1.60
2018,03,29,08,01,4.80
2018,03,29,08,02,4.80
2018,03,29,08,03,4.80
2018,03,29,08,04,3.20
2018,03,29,08,05,1.60
2018,03,29,08,06,3.20
2018,03,29,08,07,3.20
2018,03,29,08,08,3.20
2018,03,29,08,09,4.80
2018,03,29,08,10,3.20
2018,03,29,08,11,4.80
2018,03,29,08,12,3.20
2018,03,29,08,13,1.60
2018,03,29,08,14,1.60
2018,03,29,08,25,4.80
2018,03,29,08,26,6.40
2018,03,29,08,27,4.80
2018,03,29,08,28,4.80
2018,03,29,08,29,4.80
2018,03,29,08,30,4.80
2018,03,29,08,31,4.80
2018,03,29,08,32,4.80
2018,03,29,08,33,3.20
2018,03,29,08,34,3.20
2018,03,29,08,35,4.80
2018,03,29,08,36,3.20
2018,03,29,08,37,3.20
2018,03,29,08,38,3.20
2018,03,29,08,39,3.20
2018,03,29,08,40,4.80
2018,03,29,08,41,3.20
2018,03,29,08,42,3.20
2018,03,29,08,43,3.20
2018,03,29,08,44,3.20
2018,03,29,08,45,3.20
2018,03,29,08,46,4.80
2018,03,29,08,47,3.20
2018,03,29,08,48,1.60
2018,03,29,08,49,4.80
2018,03,29,08,50,4.80
2018,03,29,08,51,4.80
2018,03,29,08,52,6.40
2018,03,29,08,53,4.80
2018,03,29,08,54,4.80
2018,03,29,08,55,3.20
2018,03,29,09,27,4.80
2018,03,29,09,28,4.80
2018,03,29,09,29,3.20
2018,03,29,09,30,3.20
2018,03,29,09,31,3.20
2018,03,29,09,32,3.20
2018,03,29,09,33,3.20
2018,03,29,09,34,3.20
2018,03,29,09,35,3.20
2018,03,29,09,36,3.20
2018,03,29,09,37,3.20
2018,03,29,09,38,3.20
2018,03,29,09,45,3.20
2018,03,29,09,53,1.60
2018,03,29,09,58,3.20
2018,03,29,09,59,1.60
2018,03,29,10,03,1.60
2018,03,29,10,06,1.60
2018,03,29,10,07,3.20
2018,03,29,10,08,3.20
2018,03,29,10,09,1.60
2018,03,29,10,14,1.60
2018,03,29,10,44,4.80
2018,03,29,10,45,4.80
2018,03,29,10,47,3.20
2018,03,29,11,00,1.60
2018,03,29,11,06,1.60
2018,03,29,11,17,9.60
2018,03,29,11,18,9.60
2018,03,29,11,19,9.60
2018,03,29,11,20,8.10
2018,03,29,11,21,9.60
2018,03,29,11,22,8.10
2018,03,29,11,23,8.10
2018,03,29,11,24,4.80
2018,03,29,11,25,6.40
2018,03,29,11,26,3.20
2018,03,29,11,27,3.20
2018,03,29,11,28,4.80
2018,03,29,11,29,4.80
2018,03,29,11,32,4.80
2018,03,29,11,33,6.40
2018,03,29,11,34,6.40
2018,03,29,11,35,4.80
2018,03,29,11,36,9.60
2018,03,29,11,37,3.20
2018,03,29,11,38,4.80
2018,03,29,11,39,4.80
2018,03,29,11,40,8.10
2018,03,29,11,41,6.40
2018,03,29,11,42,1.60
2018,03,29,11,43,1.60
2018,03,29,11,44,3.20
2018,03,29,11,45,3.20
2018,03,29,11,46,4.80
2018,03,29,11,47,4.80
2018,03,29,11,48,6.40
2018,03,29,11,49,1.60
2018,03,29,11,50,4.80
2018,03,29,11,51,8.10
2018,03,29,11,52,3.20
2018,03,29,11,53,6.40
2018,03,29,11,58,8.10
2018,03,29,11,59,8.10
2018,03,29,12,03,4.80
2018,03,29,12,04,4.80
2018,03,29,12,05,3.20
2018,03,29,12,06,6.40
2018,03,29,12,07,6.40
2018,03,29,12,08,8.10
2018,03,29,12,09,8.10
2018,03,29,12,10,8.10
2018,03,29,12,11,16.10
2018,03,29,12,12,16.10
2018,03,29,12,13,11.30
2018,03,29,12,14,16.10
2018,03,29,12,15,11.30
2018,03,29,12,16,22.50
2018,03,29,12,17,17.70
2018,03,29,12,18,12.90
2018,03,29,12,19,17.70
2018,03,29,12,20,12.90
2018,03,29,12,21,16.10
2018,03,29,12,22,25.70
2018,03,29,12,23,17.70
2018,03,29,12,24,17.70
2018,03,29,12,25,14.50
2018,03,29,12,26,17.70
2018,03,29,12,27,16.10
2018,03,29,12,28,12.90
2018,03,29,12,29,20.90
2018,03,29,12,30,19.30
2018,03,29,12,31,17.70
2018,03,29,12,32,16.10
2018,03,29,12,33,12.90
2018,03,29,12,34,14.50
2018,03,29,12,35,17.70
2018,03,29,12,36,14.50
2018,03,29,12,37,14.50
2018,03,29,12,38,14.50
2018,03,29,12,39,14.50
2018,03,29,12,40,16.10
2018,03,29,12,41,16.10
2018,03,29,12,42,17.70
2018,03,29,12,43,16.10
2018,03,29,12,44,14.50
2018,03,29,12,45,20.90
2018,03,29,12,46,17.70
2018,03,29,12,47,20.90
2018,03,29,12,48,17.70
2018,03,29,12,49,20.90
2018,03,29,12,50,16.10
2018,03,29,12,51,17.70
2018,03,29,12,52,17.70
2018,03,29,12,53,22.50
2018,03,29,12,54,16.10
2018,03,29,12,55,20.90
2018,03,29,12,56,17.70
2018,03,29,12,57,17.70
2018,03,29,12,58,14.50
2018,03,29,12,59,14.50
2018,03,29,13,00,14.50
2018,03,29,13,01,12.90
2018,03,29,13,02,16.10
2018,03,29,13,03,17.70
2018,03,29,13,04,22.50
2018,03,29,13,05,20.90
2018,03,29,13,06,14.50
2018,03,29,13,07,12.90
2018,03,29,13,08,20.90
2018,03,29,13,09,17.70
2018,03,29,13,10,17.70
2018,03,29,13,11,25.70
2018,03,29,13,12,20.90
2018,03,29,13,13,16.10
2018,03,29,13,14,14.50
2018,03,29,13,15,17.70
2018,03,29,13,16,19.30
2018,03,29,13,17,16.10
2018,03,29,13,18,16.10
2018,03,29,13,19,14.50
2018,03,29,13,20,12.90
2018,03,29,13,21,16.10
2018,03,29,13,22,14.50
2018,03,29,13,23,17.70
2018,03,29,13,24,17.70
2018,03,29,13,25,17.70
2018,03,29,13,26,24.20
2018,03,29,13,27,19.30
2018,03,29,13,28,16.10
2018,03,29,13,29,19.30
2018,03,29,13,30,17.70
2018,03,29,13,31,14.50
2018,03,29,13,32,16.10
2018,03,29,13,33,12.90
2018,03,29,13,34,14.50
2018,03,29,13,35,19.30
2018,03,29,13,36,16.10
2018,03,29,13,37,11.30
2018,03,29,13,38,17.70
2018,03,29,13,39,22.50
2018,03,29,13,40,14.50
2018,03,29,13,41,14.50
2018,03,29,13,42,14.50
2018,03,29,13,43,19.30
2018,03,29,13,44,27.40
2018,03,29,13,45,22.50
2018,03,29,13,46,16.10
2018,03,29,13,47,14.50
2018,03,29,13,48,17.70
2018,03,29,13,49,14.50
2018,03,29,13,50,14.50
2018,03,29,13,51,14.50
2018,03,29,13,52,20.90
2018,03,29,13,53,22.50
2018,03,29,13,54,22.50
2018,03,29,13,55,20.90
2018,03,29,13,56,19.30
2018,03,29,13,57,17.70
2018,03,29,13,58,14.50
2018,03,29,13,59,16.10
2018,03,29,14,00,11.30
2018,03,29,14,01,16.10
2018,03,29,14,02,16.10
2018,03,29,14,03,16.10
2018,03,29,14,04,17.70
2018,03,29,14,05,14.50
2018,03,29,14,06,9.60
2018,03,29,14,07,11.30
2018,03,29,14,08,16.10
2018,03,29,14,09,19.30
2018,03,29,14,10,22.50
2018,03,29,14,11,17.70
2018,03,29,14,12,22.50
2018,03,29,14,13,19.30
2018,03,29,14,14,16.10
2018,03,29,14,15,24.20
2018,03,29,14,16,24.20
2018,03,29,14,17,19.30
2018,03,29,14,18,22.50
2018,03,29,14,19,19.30
2018,03,29,14,20,19.30
2018,03,29,14,21,16.10
2018,03,29,14,22,12.90
2018,03,29,14,23,12.90
2018,03,29,14,24,11.30
2018,03,29,14,25,14.50
2018,03,29,14,26,19.30
2018,03,29,14,27,19.30
2018,03,29,14,28,16.10
2018,03,29,14,29,17.70
2018,03,29,14,30,20.90
2018,03,29,14,31,12.90
2018,03,29,14,32,11.30
2018,03,29,14,33,16.10
2018,03,29,14,34,14.50
2018,03,29,14,35,14.50
2018,03,29,14,36,12.90
2018,03,29,14,37,17.70
2018,03,29,14,38,8.10
2018,03,29,14,39,8.10
2018,03,29,14,40,8.10
2018,03,29,14,41,16.10
2018,03,29,14,42,22.50
2018,03,29,14,43,14.50
2018,03,29,14,44,17.70
2018,03,29,14,45,14.50
2018,03,29,14,46,17.70
2018,03,29,14,47,16.10
2018,03,29,14,48,16.10
2018,03,29,14,49,12.90
2018,03,29,14,50,17.70
2018,03,29,14,51,14.50
2018,03,29,14,52,17.70
2018,03,29,14,53,24.20
2018,03,29,14,54,19.30
2018,03,29,14,55,16.10
2018,03,29,14,56,14.50
2018,03,29,14,57,14.50
2018,03,29,14,58,16.10
2018,03,29,14,59,9.60
2018,03,29,15,00,12.90
2018,03,29,15,01,11.30
2018,03,29,15,02,16.10
2018,03,29,15,03,17.70
2018,03,29,15,04,14.50
2018,03,29,15,05,11.30
2018,03,29,15,06,19.30
2018,03,29,15,07,11.30
2018,03,29,15,08,17.70
2018,03,29,15,09,12.90
2018,03,29,15,10,12.90
2018,03,29,15,11,17.70
2018,03,29,15,12,17.70
2018,03,29,15,13,17.70
2018,03,29,15,14,11.30
2018,03,29,15,15,12.90
2018,03,29,15,16,9.60
2018,03,29,15,17,17.70
2018,03,29,15,18,19.30
2018,03,29,15,19,12.90
2018,03,29,15,20,19.30
2018,03,29,15,21,22.50
2018,03,29,15,22,20.90
2018,03,29,15,23,20.90
2018,03,29,15,24,16.10
2018,03,29,15,25,17.70
2018,03,29,15,26,19.30
2018,03,29,15,27,20.90
2018,03,29,15,28,25.70
2018,03,29,15,29,16.10
2018,03,29,15,30,16.10
2018,03,29,15,31,16.10
2018,03,29,15,32,20.90
2018,03,29,15,33,24.20
2018,03,29,15,34,24.20
2018,03,29,15,35,19.30
2018,03,29,15,36,9.60
2018,03,29,15,37,14.50
2018,03,29,15,38,16.10
2018,03,29,15,39,20.90
2018,03,29,15,40,17.70
2018,03,29,15,41,12.90
2018,03,29,15,42,17.70
2018,03,29,15,43,14.50
2018,03,29,15,44,12.90
2018,03,29,15,45,14.50
2018,03,29,15,46,19.30
2018,03,29,15,47,11.30
2018,03,29,15,48,22.50
2018,03,29,15,49,16.10
2018,03,29,15,50,14.50
2018,03,29,15,51,22.50
2018,03,29,15,52,17.70
2018,03,29,15,53,16.10
2018,03,29,15,54,17.70
2018,03,29,15,55,16.10
2018,03,29,15,56,14.50
2018,03,29,15,57,16.10
2018,03,29,15,58,17.70
2018,03,29,15,59,20.90
2018,03,29,16,00,20.90
2018,03,29,16,01,16.10
2018,03,29,16,02,14.50
2018,03,29,16,03,17.70
2018,03,29,16,04,20.90
2018,03,29,16,05,19.30
2018,03,29,16,06,22.50
2018,03,29,16,07,12.90
2018,03,29,16,08,17.70
2018,03,29,16,09,19.30
2018,03,29,16,10,17.70
2018,03,29,16,11,14.50
2018,03,29,16,12,17.70
2018,03,29,16,13,16.10
2018,03,29,16,14,17.70
2018,03,29,16,15,16.10
2018,03,29,16,16,14.50
2018,03,29,16,17,17.70
2018,03,29,16,18,17.70
2018,03,29,16,19,19.30
2018,03,29,16,20,9.60
2018,03,29,16,21,11.30
2018,03,29,16,22,12.90
2018,03,29,16,23,12.90
2018,03,29,16,24,17.70
2018,03,29,16,25,12.90
2018,03,29,16,26,11.30
2018,03,29,16,27,8.10
2018,03,29,16,28,9.60
2018,03,29,16,29,19.30
2018,03,29,16,30,12.90
2018,03,29,16,31,17.70
2018,03,29,16,32,14.50
2018,03,29,16,33,16.10
2018,03,29,16,34,16.10
2018,03,29,16,35,16.10
2018,03,29,16,36,9.60
2018,03,29,16,37,9.60
2018,03,29,16,38,11.30
2018,03,29,16,39,14.50
2018,03,29,16,40,14.50
2018,03,29,16,41,16.10
2018,03,29,16,42,19.30
2018,03,29,16,43,17.70
2018,03,29,16,44,12.90
2018,03,29,16,45,8.10
2018,03,29,16,46,12.90
2018,03,29,16,47,9.60
2018,03,29,16,48,11.30
2018,03,29,16,49,16.10
2018,03,29,16,50,12.90
2018,03,29,16,51,17.70
2018,03,29,16,52,22.50
2018,03,29,16,53,20.90
2018,03,29,16,54,14.50
2018,03,29,16,55,12.90
2018,03,29,16,56,9.60
2018,03,29,16,57,12.90
2018,03,29,16,58,11.30
2018,03,29,16,59,11.30
2018,03,29,17,00,9.60
2018,03,29,17,01,9.60
2018,03,29,17,02,14.50
2018,03,29,17,03,12.90
2018,03,29,17,04,11.30
2018,03,29,17,05,20.90
2018,03,29,17,06,16.10
2018,03,29,17,07,17.70
2018,03,29,17,08,19.30
2018,03,29,17,09,16.10
2018,03,29,17,10,16.10
2018,03,29,17,11,12.90
2018,03,29,17,12,14.50
2018,03,29,17,13,24.20
2018,03,29,17,14,22.50
2018,03,29,17,15,19.30
2018,03,29,17,16,12.90
2018,03,29,17,17,17.70
2018,03,29,17,18,14.50
2018,03,29,17,19,17.70
2018,03,29,17,20,14.50
2018,03,29,17,21,17.70
2018,03,29,17,22,16.10
2018,03,29,17,23,17.70
2018,03,29,17,24,14.50
2018,03,29,17,25,11.30
2018,03,29,17,26,19.30
2018,03,29,17,27,16.10
2018,03,29,17,28,22.50
2018,03,29,17,29,22.50
2018,03,29,17,30,12.90
2018,03,29,17,31,11.30
2018,03,29,17,32,11.30
2018,03,29,17,33,24.20
2018,03,29,17,34,17.70
2018,03,29,17,35,14.50
2018,03,29,17,36,14.50
2018,03,29,17,37,17.70
2018,03,29,17,38,9.60
2018,03,29,17,39,8.10
2018,03,29,17,40,8.10
2018,03,29,17,41,8.10
2018,03,29,17,42,8.10
2018,03,29,17,43,8.10
2018,03,29,17,44,16.10
2018,03,29,17,45,14.50
2018,03,29,17,46,20.90
2018,03,29,17,47,8.10
2018,03,29,17,48,14.50
2018,03,29,17,49,12.90
2018,03,29,17,50,20.90
2018,03,29,17,51,17.70
2018,03,29,17,52,17.70
2018,03,29,17,53,12.90
2018,03,29,17,54,16.10
2018,03,29,17,55,19.30
2018,03,29,17,56,11.30
2018,03,29,17,57,17.70
2018,03,29,17,58,17.70
2018,03,29,17,59,16.10
2018,03,29,18,00,16.10
2018,03,29,18,01,16.10
2018,03,29,18,02,16.10
2018,03,29,18,03,16.10
2018,03,29,18,04,24.20
2018,03,29,18,05,14.50
2018,03,29,18,06,19.30
2018,03,29,18,07,19.30
2018,03,29,18,08,16.10
2018,03,29,18,09,16.10
2018,03,29,18,10,12.90
2018,03,29,18,11,9.60
2018,03,29,18,12,20.90
2018,03,29,18,13,25.70
2018,03,29,18,14,27.40
2018,03,29,18,15,17.70
2018,03,29,18,16,16.10
2018,03,29,18,17,17.70
2018,03,29,18,18,17.70
2018,03,29,18,19,17.70
2018,03,29,18,20,20.90
2018,03,29,18,21,24.20
2018,03,29,18,22,22.50
2018,03,29,18,23,25.70
2018,03,29,18,24,16.10
2018,03,29,18,25,19.30
2018,03,29,18,26,25.70
2018,03,29,18,27,14.50
2018,03,29,18,28,16.10
2018,03,29,18,29,22.50
2018,03,29,18,30,20.90
2018,03,29,18,31,20.90
2018,03,29,18,32,17.70
2018,03,29,18,33,11.30
2018,03,29,18,34,22.50
2018,03,29,18,35,14.50
2018,03,29,18,36,19.30
2018,03,29,18,37,25.70
2018,03,29,18,38,27.40
2018,03,29,18,39,17.70
2018,03,29,18,40,17.70
2018,03,29,18,41,19.30
2018,03,29,18,42,17.70
2018,03,29,18,43,12.90
2018,03,29,18,44,17.70
2018,03,29,18,45,19.30
2018,03,29,18,46,24.20
2018,03,29,18,47,22.50
2018,03,29,18,48,22.50
2018,03,29,18,49,22.50
2018,03,29,18,50,20.90
2018,03,29,18,51,22.50
2018,03,29,18,52,14.50
2018,03,29,18,53,22.50
2018,03,29,18,54,12.90
2018,03,29,18,55,29.00
2018,03,29,18,56,12.90
2018,03,29,18,57,19.30
2018,03,29,18,58,19.30
2018,03,29,18,59,11.30
2018,03,29,19,00,12.90
2018,03,29,19,01,12.90
2018,03,29,19,02,12.90
2018,03,29,19,03,22.50
2018,03,29,19,04,20.90
2018,03,29,19,05,16.10
2018,03,29,19,06,16.10
2018,03,29,19,07,25.70
2018,03,29,19,08,24.20
2018,03,29,19,09,22.50
2018,03,29,19,10,24.20
2018,03,29,19,11,24.20
2018,03,29,19,12,12.90
2018,03,29,19,13,16.10
2018,03,29,19,14,29.00
2018,03,29,19,15,29.00
2018,03,29,19,16,20.90
2018,03,29,19,17,24.20
2018,03,29,19,18,17.70
2018,03,29,19,19,14.50
2018,03,29,19,20,16.10
2018,03,29,19,21,19.30
2018,03,29,19,22,29.00
2018,03,29,19,23,12.90
2018,03,29,19,24,12.90
2018,03,29,19,25,24.20
2018,03,29,19,26,19.30
2018,03,29,19,27,19.30
2018,03,29,19,28,19.30
2018,03,29,19,29,24.20
2018,03,29,19,30,20.90
2018,03,29,19,31,19.30
2018,03,29,19,32,20.90
2018,03,29,19,33,20.90
2018,03,29,19,34,16.10
2018,03,29,19,35,19.30
2018,03,29,19,36,24.20
2018,03,29,19,37,19.30
2018,03,29,19,38,20.90
2018,03,29,19,39,25.70
2018,03,29,19,40,24.20
2018,03,29,19,41,11.30
2018,03,29,19,42,11.30
2018,03,29,19,43,24.20
2018,03,29,19,44,33.80
2018,03,29,19,45,25.70
2018,03,29,19,46,29.00
2018,03,29,19,47,27.40
2018,03,29,19,48,20.90
2018,03,29,19,49,17.70
2018,03,29,19,50,14.50
2018,03,29,19,51,17.70
2018,03,29,19,52,17.70
2018,03,29,19,53,24.20
2018,03,29,19,54,32.20
2018,03,29,19,55,25.70
2018,03,29,19,56,19.30
2018,03,29,19,57,12.90
2018,03,29,19,58,14.50
2018,03,29,19,59,25.70
2018,03,29,20,00,16.10
2018,03,29,20,01,17.70
2018,03,29,20,02,20.90
2018,03,29,20,03,14.50
2018,03,29,20,04,22.50
2018,03,29,20,05,19.30
2018,03,29,20,06,24.20
2018,03,29,20,07,16.10
2018,03,29,20,08,25.70
2018,03,29,20,09,19.30
2018,03,29,20,10,16.10
2018,03,29,20,11,24.20
2018,03,29,20,12,25.70
2018,03,29,20,13,17.70
2018,03,29,20,14,17.70
2018,03,29,20,15,27.40
2018,03,29,20,16,19.30
2018,03,29,20,17,12.90
2018,03,29,20,18,12.90
2018,03,29,20,19,14.50
2018,03,29,20,20,20.90
2018,03,29,20,21,30.60
2018,03,29,20,22,25.70
2018,03,29,20,23,17.70
2018,03,29,20,24,22.50
2018,03,29,20,25,25.70
2018,03,29,20,26,29.00
2018,03,29,20,27,22.50
2018,03,29,20,28,20.90
2018,03,29,20,29,19.30
2018,03,29,20,30,16.10
2018,03,29,20,31,30.60
2018,03,29,20,32,22.50
2018,03,29,20,33,17.70
2018,03,29,20,34,20.90
2018,03,29,20,35,19.30
2018,03,29,20,36,19.30
2018,03,29,20,37,16.10
2018,03,29,20,38,16.10
2018,03,29,20,39,14.50
2018,03,29,20,40,14.50
2018,03,29,20,41,25.70
2018,03,29,20,42,19.30